Location: Long Barn
(38.0930°N, 120.1344°W)
Time: 19:28:20
(UTC+00:00)

Hubble Space Telescope - Pass Details

Date: 28 January 2026
Orbit: 478 x 480 km, 28.5° (Epoch: 5 February)

Event Time Altitude Azimuth Distance (km) Brightness Sun altitude
Rises 02:23:23 0° 243° (WSW) 2,511 5.9 -13.0°
Reaches altitude 10° 02:26:02 10° 225° (SW) 1,635 4.1 -13.5°
Maximum altitude 02:28:44 19° 179° (S) 1,192 2.7 -14.1°
Enters shadow 02:31:16 11° 135° (SE) 1,590 2.9 -14.5°
